Location: Friaudour
(46.0460°N, 1.2873°E)
Time: 23:33:15
(UTC+00:00)

ERS-2 - Visible Passes

Search period start: 29 October 2020 00:00
Search period end: 08 November 2020 00:00
Orbit: 492 x 499 km, 98.6° (Epoch: 29 October)

Date Brightness Start Highest point End Pass type
(mag) Time Alt. Az. Time Alt. Az. Time Alt. Az.
29 Oct 2.5 04:14:47 10° SSE 04:17:54 59° ESE 04:17:54 59° ESE visible
29 Oct 2.4 17:14:25 10° NNE 17:17:58 48° ESE 17:21:30 10° S visible
29 Oct 5.2 18:49:08 10° NNW 18:51:07 14° WNW 18:53:08 10° W visible
30 Oct 3.8 03:54:07 10° SE 03:56:33 31° ESE 03:56:33 31° ESE visible
30 Oct 3.7 05:28:51 10° SW 05:31:08 16° W 05:31:08 16° W visible
30 Oct 4.5 18:27:25 10° NNW 18:30:21 23° WNW 18:33:17 10° WSW visible
31 Oct 4.8 03:33:48 10° ESE 03:35:12 17° E 03:35:12 17° E visible
31 Oct 3.0 05:06:54 10° SSW 05:09:47 28° WSW 05:09:47 28° WSW visible
31 Oct 3.5 18:06:05 10° N 18:09:31 39° WNW 18:12:55 10° SW visible
01 Nov 2.4 04:45:29 10° S 04:48:27 45° SW 04:48:27 45° SW visible
01 Nov 2.3 17:44:57 10° N 17:48:36 73° WNW 17:52:13 10° SSW visible
02 Nov 2.7 04:24:24 10° SSE 04:27:06 48° SSE 04:27:06 48° SSE visible
02 Nov 2.1 17:24:00 10° NNE 17:27:38 59° ESE 17:31:13 10° S visible
02 Nov 5.3 18:59:12 10° NW 19:00:42 12° WNW 19:02:12 10° W visible
03 Nov 3.8 04:03:37 10° SE 04:05:47 30° ESE 04:05:47 30° ESE visible
03 Nov 4.0 05:39:01 10° WSW 05:40:21 13° WSW 05:40:21 13° WSW visible
03 Nov 2.9 17:03:16 10° NNE 17:06:35 32° E 17:09:53 10° SSE visible
03 Nov 4.8 18:37:14 10° NNW 18:39:56 20° WNW 18:42:37 10° WSW visible
04 Nov 4.7 03:43:10 10° SE 03:44:27 18° ESE 03:44:27 18° ESE visible
04 Nov 3.4 05:16:47 10° SSW 05:19:02 22° WSW 05:19:02 22° WSW visible
04 Nov 3.9 18:15:48 10° N 18:19:06 33° WNW 18:22:24 10° SW visible
05 Nov 2.9 04:55:13 10° S 04:57:43 34° SW 04:57:43 34° SW visible
05 Nov 2.7 17:54:35 10° N 17:58:12 59° WNW 18:01:47 10° SSW visible
06 Nov 2.9 04:34:01 10° S 04:36:25 40° S 04:36:25 40° S visible
06 Nov 2.0 17:33:34 10° NNE 17:37:14 74° ESE 17:40:53 10° S visible
06 Nov 5.5 19:09:40 10° NW 19:10:13 10° WNW 19:10:45 10° WNW visible
07 Nov 3.7 04:13:07 10° SSE 04:15:06 29° SE 04:15:06 29° SE visible
07 Nov 4.2 05:49:26 10° WSW 05:49:40 10° WSW 05:49:40 10° WSW visible
07 Nov 2.6 17:12:44 10° NNE 17:16:12 39° E 17:19:39 10° S visible
07 Nov 5.0 18:47:03 10° NNW 18:49:28 17° WNW 18:51:52 10° WSW visible
